Regional Weather Roundup
Issued by NWS

Home | Current Version | Previous Version | Text Only | Print | Product List | Glossary On
Versions: 1 2 3 4 5 6 7 8 9 10 11 12 13 14 15 16 17 18 19 20 21 22 23 24 25 26 27 28 29 30 31 32 33 34 35 36 37 38 39 40 41 42 43 44 45 46 47 48 49 50
000
ASUS45 KABQ 041610
RWRNM
NEW MEXICO REGIONAL WEATHER ROUNDUP
NATIONAL WEATHER SERVICE ALBUQUERQUE NM
900 AM MST SUN DEC 04 2016

NOTE: "FAIR" MEANS FEW OR NO CLOUDS BELOW 12,000 FEET AGL WITH NO
       SIGNIFICANT WEATHER OR OBSTRUCTIONS TO VISION.

      THIS PRODUCT IS RELEASED AS TWO VERSIONS.  ONE VERSION NEAR
      THE TOP OF THE HOUR CONTAINING PRELIMINARY DATA FROM ALBUQUERQUE
      AND OTHER STATIONS.  A FINAL VERSION WITH ADDITIONAL DATA IS
      ISSUED ABOUT 10 MINUTES AFTER THE HOUR.

NMZ501-503-504-510>518-041700-
NORTHWEST PLATEAU/NORTHCENTRAL MOUNTAINS

CITY           SKY/WX    TMP DP  RH WIND       PRES   REMARKS
FARMINGTON     FAIR      23  18  81 E7        30.22R WCI  15
LOS ALAMOS     FAIR      26  14  61 E6        30.16R WCI  19
SANTA FE       FAIR      29  12  49 N21G29    30.15R WCI  16
TAOS           FAIR      19  10  68 CALM      30.19S
ANGEL FIRE     FAIR      10   6  84 CALM      30.15R

$$
NMZ402-403-502-505>509-041700-
WESTCENTRAL MOUNTAINS/SOUTHWEST MOUNTAINS

CITY           SKY/WX    TMP DP  RH WIND       PRES   REMARKS
GALLUP         FAIR      21  16  81 CALM      30.21R
GRANTS         FAIR      24  17  74 NW6       30.21R WCI  17
SILVER CITY    FAIR      38  25  59 NW3       30.13R

$$
NMZ407-409-411-412-041700-
SOUTHERN DESERTS

CITY           SKY/WX    TMP DP  RH WIND       PRES   REMARKS
DEMING         FAIR      39  29  67 CALM      30.13R
LAS CRUCES     FAIR      41  16  37 N20G25    30.12R
HOLLOMAN AFB   FAIR      38  27  64 CALM      30.16R
T OR C         FAIR      39  17  41 NE3       30.15R

$$
NMZ519>523-041700-
CENTRAL VALLEYS/CENTRAL HIGHLANDS

CITY           SKY/WX    TMP DP  RH WIND       PRES   REMARKS
ALBUQUERQUE    FAIR      32  13  45 N7        30.18R WCI  26
DOUBLE EAGLE   SUNNY     34  12  40 N8        30.18R WCI  27
MORIARTY ARPT  FAIR      32  17  55 NW9       30.16S WCI  24
CLINES CORNERS FAIR      27  17  66 W6        30.13R WCI  20
BELEN          FAIR      33  15  46 NW8       30.19S WCI  26
SOCORRO        FAIR      33  19  56 N12       30.20R WCI  24

$$
NMZ524>526-539-540-041700-
SOUTHCENTRAL MOUNTAINS

CITY           SKY/WX    TMP DP  RH WIND       PRES   REMARKS
RUIDOSO        FAIR      32  21  64 W3        30.16R

$$
NMZ527>531-041700-
NORTHEAST HIGHLANDS/NORTHEAST PLAINS

CITY           SKY/WX    TMP DP  RH WIND       PRES   REMARKS
LAS VEGAS      FAIR      31  18  58 SW13      30.11R WCI  21
RATON          FAIR      24  16  71 NE5       30.10R WCI  18
CLAYTON        FAIR      38  24  57 CALM      30.12R

$$
NMZ532>537-041700-
EASTCENTRAL PLAINS

CITY           SKY/WX    TMP DP  RH WIND       PRES   REMARKS
TUCUMCARI      FAIR      33  30  88 CALM      30.14R
CANNON AFB     CLOUDY    30  30 100 VRB3      30.14R
CLOVIS AIRPORT CLOUDY    32  28  86 N7        30.14R WCI  26

$$
NMZ028-029-538-041700-
SOUTHEAST PLAINS

CITY           SKY/WX    TMP DP  RH WIND       PRES   REMARKS
ROSWELL        FAIR      41  29  62 N17       30.16R
ARTESIA        FAIR      39  39 100 N10       30.17R WCI  32
CARLSBAD       FAIR      37  37 100 NW15      30.15R WCI  28
HOBBS          CLOUDY    37  37 100 NW12      30.14R FOG     WCI  30


$$



USA.gov is the U.S. government's official web portal to all federal, state and local government web resources and services.